Weather History for KASH - February, 2013

Change the Weather History Date:

Sunday, February 24, 2013

  Actual Average Record
Temperature  
Mean Temperature 32 °F -  
Max Temperature 34 °F 38 °F 70 °F (1985)
Min Temperature 30 °F 20 °F -10 °F (2015)
Degree Days  
Heating Degree Days 33    
Moisture  
Dew Point 31 °F    
Average Humidity 93    
Maximum Humidity 100    
Minimum Humidity 87    
Precipitation  
Precipitation 0.38 in - - ()
Sea Level Pressure  
Sea Level Pressure 30.07 in    
Wind  
Wind Speed 5 mph (North)    
Max Wind Speed 9 mph    
Max Gust Speed -    
Visibility 2 miles    
Events Fog , Snow    
Averages and records for this station are not official NWS values.
T = Trace of Precipitation, MM = Missing Value Source: NWS Daily Summary

Daily Weather History Graph

Daily Weather History Graph

Search for Another Location

Airport or City:

Trip Planner

Search our weather history database for the weather conditions in past years. The results will help you decide how hot, cold, wet, or windy it might be!

Date:

Astronomy

Feb. 24, 2013 Rise Set
Actual Time 6:29 AM EST 5:29 PM EST
Civil Twilight 6:00 AM EST 5:58 PM EST
Nautical Twilight 5:28 AM EST 6:30 PM EST
Astronomical Twilight 4:55 AM EST 7:03 PM EST
Moon 4:37 PM EST (2/24) 5:25 AM EST (2/24)
Length of Visible Light 11h 57m
Length of Day
11h 00m
Waxing Gibbous, 99% of the Moon is Illuminated
Feb 24
Waxing Gibbous
Feb 25
Full
Mar 4
Last Quarter
Mar 11
New
Mar 19
First Quarter

Hourly Weather History & Observations

Time (EST) Temp. Windchill Dew Point Humidity Pressure Visibility Wind Dir Wind Speed Gust Speed Precip Events Conditions
12:51 AM 32.9 °F 29.8 °F 31.1 °F 93% 30.68 in 3.0 mi North 3.5 mph - N/A   Mostly Cloudy
1:02 AM 33.8 °F 29.6 °F 32.0 °F 93% 29.92 in 6.0 mi North 4.6 mph - N/A   Mostly Cloudy
1:41 AM 33.8 °F 27.7 °F 32.0 °F 93% 29.90 in 2.5 mi North 6.9 mph - N/A   Mostly Cloudy
1:51 AM 32.9 °F 28.5 °F 32.0 °F 96% 30.65 in 2.5 mi North 4.6 mph - N/A   Mostly Cloudy
2:07 AM 33.8 °F 30.8 °F 32.0 °F 93% 29.89 in 3.0 mi North 3.5 mph - N/A   Mostly Cloudy
2:19 AM 33.8 °F 29.6 °F 32.0 °F 93% 29.88 in 2.5 mi North 4.6 mph - N/A   Mostly Cloudy
2:51 AM 32.9 °F 29.8 °F 32.0 °F 96% 30.62 in 3.0 mi North 3.5 mph - N/A   Mostly Cloudy
3:14 AM 33.8 °F 30.8 °F 32.0 °F 93% 29.85 in 2.5 mi North 3.5 mph - N/A   Mostly Cloudy
3:29 AM 33.8 °F 30.8 °F 32.0 °F 93% 29.85 in 4.0 mi NNW 3.5 mph - N/A   Mostly Cloudy
3:51 AM 32.9 °F 26.7 °F 32.0 °F 96% 30.60 in 5.0 mi NW 6.9 mph - N/A   Mostly Cloudy
4:03 AM 33.8 °F 28.6 °F 32.0 °F 93% 29.84 in 4.0 mi NW 5.8 mph - N/A   Mostly Cloudy
4:35 AM 33.8 °F 28.6 °F 32.0 °F 93% 29.83 in 2.5 mi North 5.8 mph - N/A   Overcast
4:51 AM 32.9 °F 26.7 °F 32.0 °F 96% 30.57 in 2.5 mi North 6.9 mph - N/A   Overcast
5:06 AM 33.8 °F 28.6 °F 32.0 °F 93% 29.82 in 2.0 mi North 5.8 mph - N/A   Overcast
5:18 AM 33.8 °F 29.6 °F 32.0 °F 93% 29.82 in 5.0 mi North 4.6 mph - N/A   Mostly Cloudy
5:51 AM 32.9 °F 27.5 °F 32.0 °F 96% 30.58 in 10.0 mi North 5.8 mph - N/A   Mostly Cloudy
6:31 AM 33.8 °F 29.6 °F 32.0 °F 93% 29.82 in 1.8 mi North 4.6 mph - N/A   Mostly Cloudy
6:44 AM 33.8 °F 26.4 °F 32.0 °F 93% 29.83 in 1.2 mi NNW 9.2 mph - N/A   Mostly Cloudy
6:51 AM 32.9 °F 25.9 °F 32.0 °F 96% 30.59 in 1.5 mi NNW 8.1 mph - N/A   Mostly Cloudy
7:00 AM 33.8 °F 27.0 °F 32.0 °F 93% 29.83 in 1.0 mi NW 8.1 mph - 0.00 in Snow Snow
7:09 AM 33.8 °F 27.7 °F 30.2 °F 87% 29.84 in 0.8 mi NNW 6.9 mph - 0.00 in Snow Snow
7:17 AM 33.8 °F 28.6 °F 30.2 °F 87% 29.82 in 0.5 mi North 5.8 mph - 0.00 in Fog , Snow Snow
7:51 AM 32.9 °F 27.5 °F 32.0 °F 96% 30.57 in 0.5 mi North 5.8 mph - 0.00 in Fog , Snow Snow
7:54 AM 33.8 °F 28.6 °F 32.0 °F 93% 29.81 in 0.8 mi North 5.8 mph - 0.00 in Snow Snow
7:57 AM 33.8 °F 29.6 °F 32.0 °F 93% 29.81 in 0.8 mi NNW 4.6 mph - 0.00 in Snow Snow
8:00 AM 33.8 °F 29.6 °F 32.0 °F 93% 29.81 in 1.0 mi North 4.6 mph - 0.00 in Snow Snow
8:15 AM 33.8 °F 29.6 °F 30.2 °F 87% 29.80 in 0.8 mi North 4.6 mph - 0.00 in Snow Snow
8:25 AM 33.8 °F 28.6 °F 32.0 °F 93% 29.80 in 1.0 mi North 5.8 mph - 0.00 in Snow Snow
8:35 AM 33.8 °F 28.6 °F 32.0 °F 93% 29.80 in 0.8 mi North 5.8 mph - 0.00 in Snow Snow
8:51 AM 32.9 °F 27.5 °F 32.0 °F 96% 30.55 in 0.8 mi North 5.8 mph - 0.00 in Snow Snow
8:53 AM 33.8 °F 28.6 °F 32.0 °F 93% 29.79 in 0.8 mi North 5.8 mph - 0.00 in Snow Snow
8:57 AM 33.8 °F 28.6 °F 32.0 °F 93% 29.79 in 0.8 mi North 5.8 mph - 0.00 in Snow Snow
9:06 AM 33.8 °F 27.7 °F 32.0 °F 93% 29.79 in 1.2 mi North 6.9 mph - 0.00 in Snow Snow
9:11 AM 33.8 °F 27.0 °F 32.0 °F 93% 29.79 in 1.5 mi North 8.1 mph - 0.00 in Snow Snow
9:36 AM 33.8 °F 27.0 °F 32.0 °F 93% 29.78 in 1.2 mi North 8.1 mph - 0.01 in Snow Snow
9:41 AM 33.8 °F 26.4 °F 32.0 °F 93% 29.78 in 1.0 mi North 9.2 mph - 0.01 in Snow Snow
9:51 AM 32.9 °F 25.9 °F 32.0 °F 96% 30.53 in 1.0 mi North 8.1 mph - 0.02 in Snow Snow
10:08 AM 33.8 °F 27.0 °F 30.2 °F 87% 29.78 in 0.8 mi North 8.1 mph - 0.00 in Snow Snow
10:44 AM 33.8 °F 26.4 °F 30.2 °F 87% 29.77 in 1.0 mi North 9.2 mph - 0.02 in Snow Snow
10:51 AM 32.9 °F 25.9 °F 31.1 °F 93% 30.52 in 0.8 mi North 8.1 mph - 0.03 in Snow Snow
11:10 AM 33.8 °F 28.6 °F 30.2 °F 87% 29.77 in 0.5 mi North 5.8 mph - 0.01 in Fog , Snow Snow
11:51 AM 32.9 °F 25.3 °F 32.0 °F 96% 30.51 in 1.0 mi North 9.2 mph - 0.05 in Snow Snow
12:00 PM 33.8 °F 26.4 °F 32.0 °F 93% 29.75 in 1.5 mi North 9.2 mph - 0.01 in Snow Snow
12:12 PM 33.8 °F 27.7 °F 32.0 °F 93% 29.75 in 1.0 mi North 6.9 mph - 0.03 in Snow Snow
12:51 PM 32.9 °F 25.9 °F 31.1 °F 93% 30.50 in 3.0 mi North 8.1 mph - 0.07 in Snow Snow
1:51 PM 34.0 °F 27.2 °F 32.0 °F 92% 30.49 in 1.0 mi North 8.1 mph - 0.06 in Snow Light Snow
2:51 PM 32.9 °F 25.3 °F 31.1 °F 93% 30.49 in 1.0 mi North 9.2 mph - 0.06 in Snow Light Snow
2:53 PM 33.8 °F 27.0 °F 30.2 °F 87% 29.73 in 0.2 mi North 8.1 mph - 0.00 in Fog , Snow Light Snow
3:04 PM 33.8 °F 27.0 °F 30.2 °F 87% 29.74 in 1.2 mi North 8.1 mph - 0.01 in Snow Light Snow
3:51 PM 34.0 °F 28.0 °F 32.0 °F 92% 30.51 in 4.0 mi North 6.9 mph - 0.04 in Snow Light Snow
4:32 PM 33.8 °F 27.7 °F 30.2 °F 87% 29.76 in 1.0 mi North 6.9 mph - 0.03 in Snow Light Snow
4:51 PM 32.9 °F 28.5 °F 31.1 °F 93% 30.53 in 1.0 mi North 4.6 mph - 0.04 in Snow Light Snow
5:51 PM 32.9 °F 28.5 °F 31.1 °F 93% 30.56 in 1.2 mi NNW 4.6 mph - 0.00 in Snow Light Snow
6:51 PM 32.9 °F 28.5 °F 31.1 °F 93% 30.58 in 3.0 mi NNW 4.6 mph - 0.01 in Snow Light Snow
7:33 PM 32.0 °F 26.4 °F 30.2 °F 93% 29.84 in 2.5 mi North 5.8 mph - 0.00 in Snow Light Snow
7:38 PM 32.0 °F 27.5 °F 30.2 °F 93% 29.84 in 2.0 mi North 4.6 mph - 0.00 in Snow Light Snow
7:51 PM 32.0 °F 28.7 °F 30.0 °F 92% 30.60 in 3.0 mi NNW 3.5 mph - 0.00 in Snow Light Snow
7:58 PM 32.0 °F 27.5 °F 30.2 °F 93% 29.85 in 4.0 mi North 4.6 mph - 0.00 in Snow Light Snow
8:15 PM 32.0 °F 27.5 °F 30.2 °F 93% 29.85 in 4.0 mi North 4.6 mph - 0.00 in Snow Light Snow
8:51 PM 32.0 °F - 30.0 °F 92% 30.63 in 2.0 mi Calm Calm - 0.00 in Snow Light Snow
9:02 PM 32.0 °F 28.7 °F 30.2 °F 93% 29.87 in 1.8 mi Variable 3.5 mph - 0.00 in Snow Light Snow
9:07 PM 32.0 °F 27.5 °F 30.2 °F 93% 29.87 in 2.0 mi North 4.6 mph - 0.00 in Snow Light Snow
9:15 PM 32.0 °F 28.7 °F 30.2 °F 93% 29.87 in 3.0 mi North 3.5 mph - 0.00 in Snow Light Snow
9:23 PM 32.0 °F - 30.2 °F 93% 29.87 in 3.0 mi Calm Calm - 0.00 in Snow Light Snow
9:30 PM 32.0 °F - 30.2 °F 93% 29.88 in 2.0 mi Calm Calm - 0.00 in Snow Light Snow
9:37 PM 32.0 °F 26.4 °F 30.2 °F 93% 29.88 in 2.0 mi North 5.8 mph - 0.00 in Snow Light Snow
9:42 PM 32.0 °F 27.5 °F 30.2 °F 93% 29.88 in 2.0 mi North 4.6 mph - 0.00 in Snow Light Snow
9:51 PM 31.1 °F 27.7 °F 29.1 °F 92% 30.64 in 2.0 mi North 3.5 mph - 0.00 in Snow Light Snow
10:15 PM 30.2 °F - 28.4 °F 93% 29.88 in 3.0 mi Calm Calm - 0.00 in Snow Light Snow
10:31 PM 30.2 °F - 30.2 °F 100% 29.88 in 3.0 mi Calm Calm - 0.00 in Snow Light Snow
10:42 PM 30.2 °F - 30.2 °F 100% 29.89 in 4.0 mi Calm Calm - 0.00 in Snow Light Snow
10:51 PM 31.1 °F - 30.0 °F 96% 30.65 in 4.0 mi Calm Calm - 0.00 in Snow Light Snow
11:51 PM 31.1 °F - 30.0 °F 96% 30.66 in 4.0 mi Calm Calm - 0.00 in Snow Light Snow